TimeCST,TemperatureF,Dew PointF,Humidity,Sea Level PressureIn,VisibilityMPH,Wind Direction,Wind SpeedMPH,Gust SpeedMPH,PrecipitationIn,Events,Conditions,WindDirDegrees,DateUTC
12:53 AM,36.0,28.9,76,30.45,10.0,North,9.2,-,N/A,,Clear,10,2013-01-18 06:53:00
1:53 AM,36.0,28.0,73,30.47,10.0,NNE,8.1,-,N/A,,Clear,20,2013-01-18 07:53:00
2:53 AM,35.1,27.0,72,30.47,10.0,North,9.2,-,N/A,,Clear,10,2013-01-18 08:53:00
3:53 AM,33.1,26.1,75,30.49,10.0,Calm,Calm,-,N/A,,Clear,0,2013-01-18 09:53:00
4:53 AM,30.0,25.0,82,30.51,10.0,WNW,5.8,-,N/A,,Clear,290,2013-01-18 10:53:00
5:53 AM,30.0,26.1,85,30.52,9.0,Calm,Calm,-,N/A,,Clear,0,2013-01-18 11:53:00
6:53 AM,28.0,23.0,81,30.54,7.0,Calm,Calm,-,N/A,,Clear,0,2013-01-18 12:53:00
7:53 AM,30.9,25.0,79,30.56,5.0,Calm,Calm,-,N/A,,Haze,0,2013-01-18 13:53:00
8:53 AM,35.1,28.0,76,30.59,10.0,East,3.5,-,N/A,,Clear,90,2013-01-18 14:53:00
9:53 AM,37.9,28.9,70,30.60,10.0,ESE,5.8,-,N/A,,Clear,110,2013-01-18 15:53:00
10:53 AM,41.0,30.9,67,30.59,10.0,ESE,3.5,-,N/A,,Clear,110,2013-01-18 16:53:00
11:53 AM,45.0,33.1,63,30.55,10.0,South,3.5,-,N/A,,Clear,190,2013-01-18 17:53:00
12:53 PM,48.0,30.9,52,30.51,10.0,Variable,3.5,-,N/A,,Clear,0,2013-01-18 18:53:00
1:53 PM,50.0,28.9,44,30.49,10.0,Calm,Calm,-,N/A,,Clear,0,2013-01-18 19:53:00
2:53 PM,51.1,28.0,41,30.47,10.0,Calm,Calm,-,N/A,,Clear,0,2013-01-18 20:53:00
3:53 PM,51.1,28.9,43,30.46,10.0,East,3.5,-,N/A,,Clear,80,2013-01-18 21:53:00
4:53 PM,48.9,30.9,50,30.45,10.0,Calm,Calm,-,N/A,,Clear,0,2013-01-18 22:53:00
5:53 PM,43.0,30.0,60,30.46,10.0,Calm,Calm,-,N/A,,Clear,0,2013-01-18 23:53:00
6:53 PM,42.1,27.0,55,30.45,10.0,East,3.5,-,N/A,,Clear,80,2013-01-19 00:53:00
7:53 PM,37.0,28.0,70,30.45,10.0,Calm,Calm,-,N/A,,Clear,0,2013-01-19 01:53:00
8:53 PM,35.1,28.9,78,30.45,10.0,SE,4.6,-,N/A,,Clear,130,2013-01-19 02:53:00
9:53 PM,37.0,28.0,70,30.43,10.0,SSE,5.8,-,N/A,,Clear,150,2013-01-19 03:53:00
10:53 PM,33.1,28.0,82,30.43,10.0,Calm,Calm,-,N/A,,Clear,0,2013-01-19 04:53:00
11:53 PM,32.0,27.0,82,30.42,10.0,Calm,Calm,-,N/A,,Clear,0,2013-01-19 05:53:00